星链-31124 (STARLINK-31124 )

导读 | 星芒AI

STARLINK-31124 是 SpaceX Starlink 项目中的一颗低轨通信卫星,属于第三代星链卫星(v1.5 或 v2 版本)。该卫星于 2023 年发射,旨在为全球用户提供高速互联网服务。它运行在约 550 公里的轨道高度,具备先进通信技术和激光链路,提升网络稳定性和数据传输效率。作为 Starlink 卫星群的一部分,STARLINK-31124 支持偏远地区和传统网络难以覆盖区域的互联网接入,推动全球数字连接的发展。

基本信息
目录编号:
58674
目录名称:
STARLINK-31124
国际标识:
2023-211H
轨道中心:
EARTH
卫星名称:
星链-31124
卫星全名:
星链-31124 (STARLINK-31124 )
卫星状态:
在轨 (已飞行721 天)
发射日期:
2023-12-29 UTC
国别 :
美国 (US)
星等 :
--
轨道信息
数据来源 国际轨道数据
星历时间: 2025-12-19T07:27:31+0800
22小时前
查看轨道信息
半长轴: 6861.126km
偏心率: 0.0001087
轨道倾角: 43.001°
近地点辐角 308.486°
升交点赤经 180.852°
平近点角 51.589°
近地点: 482.243km
远地点: 483.735km
周期: 94.265分钟
每日圈数: 15.276003
详细信息
固有亮度:
5
最大亮度:
0.3
卫星平台:
Starlink v2.0 mini
覆盖范围:
全球
运营商:
太空探索技术公司
运营商所在国:
美国
制造商(研发单位):
太空探索技术公司
制造商所在国:
美国
使用方式:
暂无
卫星简介
星链(Starlink)计划是由太空探索技术公司(SpaceX)提出的一个巨型低轨卫星互联网星座项目,计划在2019年至2024年间在太空搭建由约1.2万颗卫星组成的“星链”网络,其中1584颗将部署在地球上空550千米处的近地轨道,并从2020年开始工作。该卫星仍在工作。
2D轨道图
3D轨道图
轨道高度分析图
轨道倾角分析图
轨道综合分析图
查看轨道综合分析图